Location: Malvern Link
(52.1333°N, 2.3000°W)
Time: 07:15:40
(UTC+00:00)

Terra - Pass Details

Date: 18 September 2020
Orbit: 701 x 703 km, 98.2° (Epoch: 22 October)

Event Time Altitude Azimuth Distance (km) Brightness Sun altitude
Exits shadow 21:58:04 47° 345° (NNW) 937 2.7 -30.3°
Drops below altitude 10° 22:01:27 10° 345° (NNW) 2,184 5.1 -30.7°
Sets 22:03:43 0° 346° (NNW) 3,106 6.1 -30.9°
